RH
12 7 6 9 13 14 15 14 14 14 11 10 10 9 8 6 6 12 15 16 15 15 14 13 13 16 16 16 17 18 18 19 22
28 24 16 11 10 9 9 8 8 7 8 9 8 9 10 10 8 9 12 13 13 13 14 13 13 14 13 15 18 21 23 23 23
33 34 33 30 28 26 22 14 10 8 7 8 9 11 13 14 14 14 14 15 17 20 21 22 23 24 23 20 20 22 24 24 23
39 40 38 36 34 33 30 28 28 23 11 9 9 11 12 12 14 18 21 23 25 26 28 29 29 28 26 24 27 27 27 26 25
35 34 36 39 40 39 37 34 31 28 28 28 26 24 23 23 23 23 24 27 29 30 29 26 22 9 7 11 17 22 21 20 20
32 32 32 34 35 35 34 32 30 28 27 26 25 25 26 28 29 29 28 27 24 17 12 4 4 5 6 9 12 13 12 12 11
29 27 25 24 25 23 22 21 20 20 22 25 25 24 23 22 21 19 14 6 3 4 5 6 7 8 8 8 8 8 8 8 8
30 29 30 32 31 30 30 31 31 30 24 16 12 10 10 5 3 2 2 3 4 9 16 19 24 25 27 28 27 27 27 27 27
38 35 32 32 31 33 36 37 36 34 30 25 13 7 4 4 4 6 10 16 24 27 28 29 27 26 22 19 17 14 13 13 12
39 34 34 30 29 36 38 32 21 11 9 8 5 5 8 11 14 18 25 28 31 30 26 24 21 19 16 14 12 11 11 11 11
38 34 32 31 36 38 25 12 7 6 10 11 14 24 28 27 27 30 30 25 24 23 18 16 14 14 14 14 14 14 13 13 13
40 37 34 40 38 22 10 8 10 19 30 38 39 36 33 31 30 27 24 22 20 18 17 16 16 15 14 14 13 13 13 13 13
43 41 42 36 20 10 8 12 22 34 43 38 32 29 27 24 21 19 18 17 18 18 16 15 13 13 13 13 13 13 13 12 12
45 43 40 28 17 11 20 29 39 45 41 34 27 21 19 18 19 19 18 17 16 16 15 15 15 14 14 14 14 14 15 15 14
45 41 32 19 12 19 38 47 45 40 34 30 27 22 20 18 18 19 19 19 18 18 18 18 19 19 18 17 17 16 16 16 16
43 33 21 11 15 33 46 39 33 32 28 25 22 20 19 20 22 23 22 23 24 24 24 24 23 22 22 22 22 20 19 18 18
33 21 10 19 30 41 37 33 28 25 23 21 20 21 24 25 26 29 29 29 28 28 27 26 27 26 25 25 24 23 22 20 19
21 14 15 30 38 36 30 27 25 23 22 23 26 28 27 25 26 27 27 25 26 28 29 29 28 27 26 24 23 22 21 20 19
15 19 34 40 33 28 28 26 24 26 29 31 30 28 26 24 21 23 28 29 28 29 29 28 26 25 24 24 23 21 19 16 15
25 39 39 31 31 30 28 30 33 34 34 33 32 33 34 32 26 20 22 27 30 30 29 28 26 23 20 16 12 9 7 5 5
Wind_Speed
12 15 18 19 20 21 22 23 24 24 23 24 25 25 26 26 24 22 23 24 21 23 27 26 27 26 26 26 25 25 26 27 28
16 16 16 17 20 21 23 24 25 25 25 25 25 26 25 23 24 25 26 27 28 28 31 33 32 32 31 30 30 31 32 32 34
20 21 21 21 21 21 22 22 23 24 26 26 26 26 27 26 28 29 30 31 32 32 33 35 36 35 37 37 37 37 39 40 40
19 21 22 24 26 26 26 26 26 26 27 27 29 30 30 31 32 32 33 35 35 36 37 38 40 42 43 43 42 43 43 43 43
17 20 21 23 25 27 27 27 27 28 29 30 31 32 33 34 35 36 39 40 41 41 43 43 46 45 44 45 46 45 45 45 45
17 17 18 19 20 23 24 26 27 29 30 32 33 34 35 36 38 40 42 44 45 45 45 42 40 38 38 39 41 42 42 42 42
18 19 19 20 21 22 23 25 27 29 31 33 34 36 37 38 40 42 44 44 40 37 36 34 34 33 34 33 35 36 36 37 37
22 22 22 24 25 26 27 28 29 31 32 34 36 38 38 40 39 39 39 37 36 34 33 33 33 32 34 36 36 36 37 38 39
29 27 26 28 29 30 32 34 35 37 38 38 38 38 38 37 36 35 35 35 35 35 35 35 36 36 38 37 39 39 39 40 40
34 33 32 31 31 33 35 37 37 37 37 38 36 35 34 34 33 35 35 35 35 36 38 39 40 40 42 42 41 42 43 44 45
37 35 33 33 35 37 39 40 36 34 32 31 31 31 32 34 35 36 36 37 39 39 39 41 42 43 45 47 48 48 49 50 51
35 32 32 35 37 40 40 37 35 31 30 30 31 31 33 35 37 38 39 41 41 42 43 44 46 48 48 50 51 53 54 54 55
28 30 33 37 39 39 38 36 35 34 33 32 33 35 35 36 38 40 41 43 44 45 48 50 52 53 55 55 56 57 60 62 62
32 34 37 38 39 38 36 35 34 34 35 35 36 37 39 40 41 43 45 47 49 52 54 56 58 60 61 63 65 66 66 67 69
36 37 39 41 39 36 35 35 36 37 37 37 38 40 42 43 45 47 50 53 57 59 62 63 64 65 66 68 69 71 71 72 73
38 39 41 39 38 37 37 37 38 39 39 40 41 44 47 49 53 56 59 61 63 65 67 67 69 70 71 72 74 75 77 78 79
40 41 40 39 39 40 40 40 40 42 44 46 48 49 51 55 58 60 62 64 65 66 68 70 72 75 76 77 78 79 82 83 83
41 41 42 40 40 39 40 42 44 46 50 54 57 59 60 60 60 61 64 66 68 70 72 74 76 78 80 82 84 85 87 89 89
42 41 40 40 40 42 44 47 50 52 54 57 61 66 70 71 70 67 67 70 71 74 75 77 80 83 85 87 89 90 92 94 95
41 40 40 41 43 45 48 50 53 55 58 61 63 66 68 72 75 77 77 77 76 77 79 82 85 88 91 93 95 97 98 100 101
Wind_Direction
281 268 263 264 267 269 270 269 272 274 273 273 269 267 265 265 260 261 265 270 273 276 279 279 278 276 276 277 277 277 278 277 276
280 280 278 271 271 271 270 269 268 269 269 269 266 265 266 268 266 265 268 271 275 277 279 279 278 278 275 272 273 275 276 276 275
271 273 275 276 276 276 276 276 275 272 268 268 267 267 268 270 272 273 275 277 277 278 279 280 281 280 279 276 275 277 279 280 278
281 279 277 277 276 276 277 278 278 278 278 276 274 274 275 276 277 278 279 278 276 277 276 275 276 278 277 276 274 274 276 278 278
290 285 282 278 276 275 274 276 278 280 280 279 278 277 278 278 279 280 280 280 280 281 282 282 280 277 274 272 271 271 273 274 273
302 299 297 294 289 284 283 282 280 279 277 277 277 278 279 281 281 281 283 283 285 283 282 283 281 279 277 273 271 271 272 272 273
301 301 300 296 295 294 292 290 288 286 285 283 283 282 281 280 282 284 284 286 286 286 283 282 281 281 277 275 272 273 273 274 275
296 295 295 293 290 290 291 291 291 292 290 288 285 284 286 286 285 286 285 285 282 284 285 284 285 284 284 282 280 278 278 277 277
297 297 293 291 293 294 295 294 291 290 288 289 288 287 287 288 287 285 283 283 285 286 286 286 285 283 280 278 279 279 278 278 278
294 294 292 293 290 293 294 293 291 288 287 287 286 287 286 286 286 283 282 283 284 283 282 279 278 280 280 279 277 276 276 277 277
288 291 292 293 295 297 299 296 291 288 288 289 288 288 287 285 284 283 284 281 278 278 279 280 279 278 278 278 279 278 276 276 276
288 291 294 297 299 300 299 295 293 293 291 288 285 283 282 282 283 282 280 281 280 280 279 278 278 278 278 278 278 279 279 279 278
290 292 297 299 301 301 300 298 296 294 291 289 287 286 284 283 282 282 283 283 284 282 280 280 280 280 280 280 280 279 280 280 279
296 298 299 301 303 302 301 298 295 292 290 289 288 288 288 288 289 289 288 287 286 284 284 284 284 283 281 280 280 281 282 281 281
299 301 304 306 304 299 295 291 290 289 289 290 290 292 292 292 291 291 289 288 288 287 286 285 284 282 281 280 280 280 279 279 278
299 302 303 301 300 297 294 294 295 295 295 294 294 294 293 293 293 292 292 292 291 290 290 289 288 287 286 285 285 283 282 280 278
300 300 300 300 297 295 296 298 298 298 297 295 294 291 291 293 294 294 293 292 290 289 288 287 287 286 285 283 283 283 282 281 280
300 301 302 300 298 298 299 299 298 298 298 297 297 296 294 292 290 290 290 290 289 289 288 288 287 287 286 286 285 285 284 283 281
300 301 300 299 299 300 299 299 300 301 301 301 301 300 299 298 296 294 293 293 292 292 292 291 290 289 287 286 286 285 285 284 282
303 302 299 299 300 300 301 302 303 302 302 301 300 300 300 299 299 299 299 297 297 296 295 294 294 294 293 292 291 289 287 286 284